Torna al catalogo

STARLINK-37544

AttivoComunicazioniSSO
NORAD 68909·PAYLOAD·🇺🇸 United States

Lanciato Apr 30, 2026 da Vandenberg Space Force Base

Loading…

Prossimi Passaggi (prossime 24 ore)

TLE

AggiornatoSource: CelesTrak SupGP

Epoca: Sep 14, 2026, 21:05 UTC

1 68909C 26097Q   26257.87895833  .00073546  00000+0  22840-2 0  2578
2 68909  97.2850  92.0603 0001432  92.1462  57.0377 15.33388141    16

Traccia STARLINK-37544 in tempo reale con AllMySat

Download on the App Store